User: anonymous   Login
Location: Zapote
(9.9191°N, 84.0597°W)
Time: 08:49:54
(UTC-06:00)
Language:

SPROUT - Orbit

View from above orbital plane
View from above orbital plane
View from above satellite
View from above satellite

Ground track
Ground track

The orbit data is extracted from the following two-line orbital elements,

1 39770U 14029E   21110.12256176  .00000946  00000-0  10822-3 0  9992
2 39770  97.9091 221.4730 0009835  47.8074 312.4008 14.88320457374663
Epoch (UTC): 20 April 2021 02:56:29
Eccentricity: 0.0009835
inclination: 97.9091°
perigee height: 596 km
apogee height: 610 km
right ascension of ascending node: 221.4730°
argument of perigee: 47.8074°
revolutions per day: 14.88320457
mean anomaly at epoch: 312.4008°
orbit number at epoch: 37466

The dashed part of the orbit path shows where the satellite is in the earth's shadow,  

DLR